Starlink 30240

operational
NORAD ID: 57404 Int'l Des: 2023-102 Owner: SPXS Country: US Constellation: starlink
LEOCIRCULAR

关于 Starlink 30240

正在加载描述...

实时位置

正在加载3D地球...

即将过境

高度历史

Altitude vs Time

uPlot chart will show altitude changes over time

两行轨道根数

1 57404U 23102A 25259.91735248 .00000657 00000-0 63670-4 0 9994
2 57404 43.0040 113.3514 0000995 256.0423 104.0309 15.02534462120097
Epoch: Sep 16, 2025 • Age: 14 hours

当前状态

高度 571.8 km
速度 7.58 km/s
星下点 -43.15°S, 154.63°W
发射日期 Jul 19, 2023
运行时间 2.1 years
类型 internet

技术详情

分类 Payload
质量 730.00 kg
干质量 700.00 kg
总质量 730.00 kg
长度 0.30 m
直径 4.10 m
跨度 29.00 m
形状 Box + pan
制造商 SPXS
平台类型 Starlink V2M
阶段状态 In Orbit
所有者/国家 SPXS/US

大型星座

Loading constellations...